Location: ??
(35.5653°N, 139.6194°E)
Time: 10:35:19
(UTC+00:00)

Cosmos 158 Rocket - Pass Details

Date: 13 December 2025
Orbit: 695 x 785 km, 74.0° (Epoch: 18 January)

Event Time Altitude Azimuth Distance (km) Brightness Sun altitude
Rises 19:59:39 0° 204° (SSW) 3,255 7.2 -20.3°
Reaches altitude 10° 20:02:03 10° 208° (SSW) 2,327 6.4 -19.8°
Maximum altitude 20:07:19 63° 289° (WNW) 859 3.9 -18.8°
Drops below altitude 10° 20:12:30 10° 11° (N) 2,301 6.4 -17.8°
Sets 20:14:53 0° 14° (NNE) 3,216 7.2 -17.3°
